When you browse on this site, cookies collect data to enhance your experience and personalize the content and advertising you see.
Visit our Privacy Policy to learn more. By continuing to use the site, you agree to this use of cookies and data.
  • In Österreich
  • Länderverzeichnis
  • Für 7 Tage
  • Wassertemperatur
  • Wetterkarte
  • News
  • Widgets
  • user-avatar
    Anmelden

    Stündliche Wetter Strongsville

    Heute, 12 Dezember, Donnerstag

    Zeit Temperatur Niederschläge Wind Luftdruck Luftfeuchtigkeit
    00:00 -7°C° 0 mm 2 m/S 750 mmHg 66%
    01:00 -8°C° 0 mm 2 m/S 751 mmHg 67%
    02:00 -8°C° 0 mm 2 m/S 751 mmHg 67%
    03:00 -7°C° 0 mm 1 m/S 750 mmHg 67%
    04:00 -7°C° 0 mm 1 m/S 750 mmHg 67%
    05:00 -8°C° 0 mm 2 m/S 750 mmHg 64%
    06:00 -8°C° 0 mm 3 m/S 751 mmHg 62%
    07:00 -9°C° 0 mm 4 m/S 751 mmHg 59%
    08:00 -8°C° 0 mm 4 m/S 750 mmHg 59%
    09:00 -8°C° 0 mm 4 m/S 750 mmHg 59%
    10:00 -7°C° 0 mm 5 m/S 750 mmHg 60%
    11:00 -5°C° 0 mm 5 m/S 749 mmHg 58%
    12:00 -4°C° 0 mm 5 m/S 749 mmHg 56%
    13:00 -2°C° 0 mm 5 m/S 748 mmHg 54%
    14:00 -1°C° 0 mm 5 m/S 747 mmHg 56%
    15:00 -2°C° 0 mm 6 m/S 746 mmHg 57%
    16:00 -2°C° 0 mm 6 m/S 745 mmHg 58%
    17:00 -2°C° 0 mm 6 m/S 745 mmHg 59%
    18:00 -2°C° 0 mm 7 m/S 745 mmHg 60%
    19:00 -3°C° 0 mm 7 m/S 744 mmHg 61%
    20:00 -3°C° 0 mm 7 m/S 744 mmHg 60%
    21:00 -3°C° 0 mm 7 m/S 743 mmHg 59%
    22:00 -3°C° 0 mm 6 m/S 743 mmHg 58%
    23:00 -3°C° 0 mm 6 m/S 742 mmHg 60%

    Morgen, 13 Dezember, Freitag

    Zeit Temperatur Niederschläge Wind Luftdruck Luftfeuchtigkeit
    00:00 -3°C° 0 mm 6 m/S 742 mmHg 62%
    01:00 -3°C° 0 mm 6 m/S 742 mmHg 64%
    02:00 -3°C° 0 mm 6 m/S 741 mmHg 68%
    03:00 -4°C° 0 mm 6 m/S 741 mmHg 72%
    04:00 -4°C° 0 mm 5 m/S 740 mmHg 76%
    05:00 -4°C° 0 mm 5 m/S 740 mmHg 76%
    06:00 -4°C° 0 mm 5 m/S 740 mmHg 76%
    07:00 -4°C° 0 mm 5 m/S 740 mmHg 76%
    08:00 -4°C° 0 mm 5 m/S 740 mmHg 72%
    09:00 -2°C° 0 mm 5 m/S 739 mmHg 68%
    10:00 -1°C° 0 mm 5 m/S 739 mmHg 65%
    11:00 0°C° 0 mm 5 m/S 738 mmHg 64%
    12:00 0°C° 0 mm 5 m/S 738 mmHg 63%
    13:00 +1°C° 0 mm 4 m/S 737 mmHg 62%
    14:00 +1°C° 0 mm 4 m/S 736 mmHg 65%
    15:00 +1°C° 0 mm 4 m/S 735 mmHg 68%
    16:00 +2°C° 0 mm 3 m/S 734 mmHg 71%
    17:00 +2°C° 0 mm 3 m/S 734 mmHg 76%
    18:00 +1°C° 0 mm 3 m/S 734 mmHg 81%
    19:00 0°C° 0 mm 4 m/S 734 mmHg 86%
    20:00 +1°C° 0.1 mm 3 m/S 733 mmHg 90%
    21:00 +1°C° 0.1 mm 3 m/S 732 mmHg 93%
    22:00 +2°C° 0.1 mm 2 m/S 731 mmHg 96%
    23:00 +2°C° 0.9 mm 2 m/S 731 mmHg 97%

    übermorgen, 14 Dezember, Samstag

    Zeit Temperatur Niederschläge Wind Luftdruck Luftfeuchtigkeit
    00:00 +3°C° 0.9 mm 1 m/S 730 mmHg 97%
    01:00 +3°C° 0.9 mm 1 m/S 729 mmHg 98%
    02:00 +3°C° 1 mm 1 m/S 728 mmHg 98%
    03:00 +3°C° 1 mm 1 m/S 727 mmHg 98%
    04:00 +3°C° 1 mm 1 m/S 727 mmHg 99%
    05:00 +3°C° 0.5 mm 1 m/S 726 mmHg 99%
    06:00 +3°C° 0.5 mm 1 m/S 726 mmHg 99%
    07:00 +3°C° 0.5 mm 1 m/S 725 mmHg 99%
    08:00 +3°C° 0.1 mm 1 m/S 725 mmHg 98%
    09:00 +2°C° 0.1 mm 2 m/S 725 mmHg 98%
    10:00 +3°C° 0.1 mm 2 m/S 725 mmHg 97%
    11:00 +2°C° 0 mm 3 m/S 724 mmHg 93%
    12:00 +3°C° 0 mm 4 m/S 724 mmHg 89%
    13:00 +2°C° 0 mm 5 m/S 724 mmHg 85%
    14:00 +2°C° 0 mm 5 m/S 724 mmHg 88%
    15:00 +1°C° 0 mm 5 m/S 724 mmHg 91%
    16:00 +1°C° 0 mm 4 m/S 723 mmHg 93%
    17:00 +1°C° 0.1 mm 4 m/S 724 mmHg 95%
    18:00 +1°C° 0.1 mm 4 m/S 724 mmHg 96%
    19:00 +1°C° 0.1 mm 4 m/S 725 mmHg 97%
    20:00 +1°C° 0.3 mm 5 m/S 725 mmHg 95%
    21:00 +1°C° 0.3 mm 6 m/S 725 mmHg 92%
    22:00 0°C° 0.3 mm 7 m/S 725 mmHg 90%
    23:00 -1°C° 0.1 mm 8 m/S 726 mmHg 91%

    15 Dezember, Sonntag

    Zeit Temperatur Niederschläge Wind Luftdruck Luftfeuchtigkeit
    00:00 -2°C° 0.1 mm 8 m/S 726 mmHg 92%
    01:00 -4°C° 0.1 mm 9 m/S 727 mmHg 93%
    02:00 -5°C° 0.2 mm 9 m/S 728 mmHg 91%
    03:00 -5°C° 0.2 mm 9 m/S 728 mmHg 89%
    04:00 -6°C° 0.2 mm 9 m/S 729 mmHg 87%
    05:00 -6°C° 0.1 mm 8 m/S 730 mmHg 86%
    06:00 -6°C° 0.1 mm 8 m/S 731 mmHg 85%
    07:00 -7°C° 0.1 mm 8 m/S 732 mmHg 84%
    08:00 -6°C° 0.1 mm 8 m/S 733 mmHg 83%
    09:00 -6°C° 0.1 mm 7 m/S 733 mmHg 82%
    10:00 -6°C° 0.1 mm 7 m/S 734 mmHg 82%
    11:00 -6°C° 0.1 mm 7 m/S 735 mmHg 80%
    12:00 -4°C° 0.1 mm 7 m/S 735 mmHg 78%
    13:00 -4°C° 0.1 mm 7 m/S 736 mmHg 75%
    14:00 -4°C° 0 mm 7 m/S 736 mmHg 73%
    15:00 -4°C° 0 mm 6 m/S 737 mmHg 70%
    16:00 -4°C° 0 mm 5 m/S 737 mmHg 68%
    17:00 -5°C° 0 mm 5 m/S 738 mmHg 72%
    18:00 -4°C° 0 mm 4 m/S 738 mmHg 75%
    19:00 -5°C° 0 mm 3 m/S 739 mmHg 79%
    20:00 -5°C° 0 mm 3 m/S 739 mmHg 79%
    21:00 -5°C° 0 mm 3 m/S 739 mmHg 78%
    22:00 -5°C° 0 mm 3 m/S 740 mmHg 78%
    23:00 -5°C° 0 mm 3 m/S 740 mmHg 79%

    16 Dezember, Montag

    Zeit Temperatur Niederschläge Wind Luftdruck Luftfeuchtigkeit
    00:00 -4°C° 0 mm 2 m/S 740 mmHg 80%
    01:00 -4°C° 0 mm 2 m/S 740 mmHg 80%
    02:00 -4°C° 0 mm 2 m/S 741 mmHg 80%
    03:00 -2°C° 0 mm 1 m/S 741 mmHg 80%
    04:00 -2°C° 0 mm 1 m/S 741 mmHg 80%
    05:00 -2°C° 0 mm 1 m/S 741 mmHg 79%
    06:00 -2°C° 0 mm 1 m/S 741 mmHg 79%
    07:00 -2°C° 0 mm 1 m/S 741 mmHg 78%
    08:00 -2°C° 0 mm 1 m/S 741 mmHg 75%
    09:00 -3°C° 0 mm 2 m/S 741 mmHg 71%
    10:00 -4°C° 0 mm 3 m/S 741 mmHg 68%
    11:00 -2°C° 0 mm 3 m/S 740 mmHg 65%
    12:00 -1°C° 0 mm 3 m/S 739 mmHg 63%
    13:00 0°C° 0 mm 3 m/S 739 mmHg 60%
    14:00 0°C° 0 mm 3 m/S 738 mmHg 62%
    15:00 -1°C° 0 mm 4 m/S 737 mmHg 65%
    16:00 -2°C° 0 mm 4 m/S 735 mmHg 67%
    17:00 -2°C° 1.2 mm 4 m/S 734 mmHg 76%
    18:00 -4°C° 1.2 mm 5 m/S 733 mmHg 85%
    19:00 -4°C° 1.2 mm 5 m/S 732 mmHg 94%
    20:00 -2°C° 1 mm 5 m/S 731 mmHg 95%
    21:00 -2°C° 1 mm 4 m/S 730 mmHg 96%
    22:00 -1°C° 1 mm 4 m/S 729 mmHg 97%
    23:00 0°C° 0.7 mm 3 m/S 728 mmHg 98%

    17 Dezember, Dienstag

    Zeit Temperatur Niederschläge Wind Luftdruck Luftfeuchtigkeit
    00:00 +2°C° 0.7 mm 2 m/S 727 mmHg 98%
    01:00 +3°C° 0.7 mm 1 m/S 726 mmHg 99%
    02:00 +2°C° 0 mm 2 m/S 726 mmHg 99%
    03:00 +1°C° 0 mm 3 m/S 726 mmHg 99%
    04:00 +1°C° 0 mm 3 m/S 726 mmHg 99%
    05:00 -1°C° 0.1 mm 4 m/S 727 mmHg 97%
    06:00 -2°C° 0.1 mm 5 m/S 728 mmHg 96%
    07:00 -4°C° 0.1 mm 6 m/S 729 mmHg 95%
    08:00 -4°C° 0.1 mm 6 m/S 730 mmHg 93%
    09:00 -4°C° 0.1 mm 6 m/S 731 mmHg 91%
    10:00 -4°C° 0.1 mm 6 m/S 732 mmHg 89%
    11:00 -5°C° 0 mm 6 m/S 732 mmHg 89%
    12:00 -5°C° 0 mm 6 m/S 732 mmHg 88%
    13:00 -5°C° 0 mm 6 m/S 732 mmHg 88%
    14:00 -5°C° 0 mm 6 m/S 733 mmHg 87%
    15:00 -5°C° 0 mm 6 m/S 733 mmHg 87%
    16:00 -5°C° 0 mm 6 m/S 733 mmHg 87%
    17:00 -5°C° 0 mm 6 m/S 733 mmHg 88%
    18:00 -7°C° 0 mm 7 m/S 734 mmHg 89%
    19:00 -7°C° 0 mm 7 m/S 734 mmHg 90%
    20:00 -8°C° 0.1 mm 8 m/S 734 mmHg 90%
    21:00 -10°C° 0.1 mm 8 m/S 735 mmHg 89%
    22:00 -11°C° 0.1 mm 9 m/S 735 mmHg 89%
    23:00 -12°C° 0.1 mm 9 m/S 736 mmHg 88%
    Mehr zeigen